#timestamp,LO_Frequency,Hit,StdDev 
1457550015.6,286047002.7,N
1457550035.4,286046999.9,N
1457550055.2,286046998.2,N
1457550075.0,286046998.5,N
1457550076.0,286046998.5,N
1457550095.8,286046997.4,N
1457550115.6,286046999.6,N
1457550135.4,286046998.4,N
1457550155.3,286047002.4,N
1457550175.1,286046999.0,N
1457550195.8,286047002.6,N
1457550215.7,286046998.2,N
1457550235.5,286047000.5,N
1457550255.3,286047000.5,N
1457550275.2,286047002.7,N
1457550295.9,286047002.0,N
1457550315.7,286046998.4,N
1457550335.6,286046993.7,N
1457550355.4,286046997.8,N
1457550375.2,286046998.3,N
1457550395.0,286046999.8,N
1457550396.0,286046999.8,N
1457550415.8,286047000.9,N
1457550435.7,286047000.9,N
1457550455.5,286047000.4,N
1457550475.4,286047000.6,N
1457550495.2,286047002.3,N
1457550515.0,286047001.3,N
1457550515.9,286047001.3,N
1457550535.8,286047003.9,N
1457550555.6,286047005.3,N
1457550575.4,286047004.6,N
1457550595.3,286047007.6,Y
1457550615.1,286047006.7,P
1457550616.0,286047006.7,N
1457550635.8,286047010.4,P
1457550655.7,286047008.1,N
1457550675.5,286047011.6,Y
1457550695.3,286047007.0,P
1457550715.2,286047005.4,P
1457550735.9,286047006.1,P
1457550755.7,286047011.1,Y
1457550775.6,286047004.3,P
1457550795.4,286047003.0,P
1457550815.2,286047009.1,P
1457550835.1,286047009.2,Y
1457550836.0,286047009.2,P
1457550855.8,286047005.5,P
1457550875.6,286047006.8,P
1457550895.5,286047007.8,Y
1457550915.3,286047002.7,P
1457550935.1,286047003.9,N
1457550955.9,286047002.2,N
1457550975.7,286047002.6,N
1457550995.5,286047002.5,N
1457551015.4,286047004.1,N
1457551035.2,286047005.7,Y
1457551055.0,286047002.3,P
1457551055.9,286047002.3,P
1457551075.8,286047001.8,P
1457551095.6,286046999.7,N
1457551115.4,286046998.3,N
1457551135.2,286046998.1,N
1457551155.1,286047002.5,N
1457551156.0,286047002.5,N
1457551175.8,286046998.8,N
1457551195.6,286046999.5,N
1457551215.5,286046993.3,Y
1457551235.3,286046992.5,P
1457551255.1,286046992.9,N
1457551275.9,286046992.7,N
1457551295.7,286046991.3,N
1457551315.5,286046988.9,Y
1457551335.4,286046995.7,P
1457551355.2,286046996.9,P
1457551375.0,286046996.6,N
1457551376.0,286046996.6,Y
1457551395.8,286047001.9,P
1457551415.6,286047000.3,N
1457551435.4,286047001.0,N
1457551455.3,286047000.7,N
1457551475.1,286046996.6,N
1457551495.8,286046998.5,N
1457551515.7,286046999.5,N
1457551535.5,286046995.3,N
1457551555.3,286046996.6,N
1457551575.2,286046997.0,N
1457551595.9,286046998.6,N
1457551615.7,286047001.1,N
1457551635.6,286046998.7,N
1457551655.4,286046997.8,N
1457551675.2,286046998.7,N
1457551695.0,286047000.0,N
1457551696.0,286047000.0,N
1457551715.8,286047000.2,N
1457551735.6,286046998.9,N
1457551755.4,286046995.2,N
1457551775.3,286046997.3,N
1457551795.1,286046999.5,N
1457551815.8,286046999.1,N
1457551835.7,286046999.1,N
1457551855.5,286046999.0,N
1457551875.3,286047001.4,N
1457551895.2,286047000.9,N
1457551915.9,286047000.1,N
1457551935.7,286047000.7,N
1457551955.6,286046997.8,N
1457551975.4,286046996.7,N
1457551995.2,286046997.9,N
1457552015.0,286046997.7,N
1457552016.0,286046997.7,N
1457552035.8,286046995.5,N
1457552055.6,286046998.0,N
1457552075.4,286046998.1,N
1457552095.3,286046994.9,Y
1457552115.1,286046995.6,P
1457552135.8,286046995.6,P
1457552155.7,286046995.0,P
1457552175.5,286046995.2,Y
1457552195.3,286046998.2,P
1457552215.2,286047000.0,N
1457552235.0,286047005.2,P
1457552235.9,286047005.2,N
1457552255.7,286047001.9,N
1457552275.6,286047001.8,N
1457552295.4,286047002.1,N
1457552315.2,286047000.4,N
1457552335.1,286047003.3,N
1457552336.0,286047003.3,N
1457552355.8,286047005.6,N
1457552375.6,286047003.3,N
1457552395.5,286047001.6,N
1457552415.3,286046999.8,N
1457552435.1,286047001.9,N
1457552455.9,286047001.7,N
1457552475.7,286047002.9,N
1457552495.5,286047004.0,N
1457552515.4,286047000.5,N
1457552535.2,286047003.2,N
1457552555.0,286047001.7,N
1457552555.9,286047001.7,N
1457552575.8,286047007.6,Y
1457552595.6,286047005.7,P
1457552615.4,286047004.2,N
1457552635.2,286046999.8,N
1457552655.1,286047001.6,N
1457552656.0,286047001.6,N
1457552675.8,286046999.8,N
1457552695.6,286047001.5,N
1457552715.5,286047001.5,N
1457552735.3,286047000.4,N
1457552755.1,286046996.6,N
1457552775.9,286046999.3,N
1457552795.7,286046999.6,N
1457552815.5,286047000.6,N
1457552835.4,286047000.0,N
1457552855.2,286046998.3,N
1457552875.0,286046999.1,N
1457552875.9,286046999.1,N
1457552895.8,286047000.4,N
1457552915.6,286047001.9,N
1457552935.4,286047002.7,N
1457552955.3,286047000.9,N
1457552975.1,286047001.9,N
1457552976.0,286047001.9,N
1457552995.8,286047002.7,N
1457553015.6,286047000.0,N
1457553035.5,286046998.4,N
1457553055.3,286046998.5,N
1457553075.1,286046998.2,N
1457553095.9,286046999.8,N
1457553115.7,286046998.6,N
1457553135.5,286046995.0,N
1457553155.4,286046998.0,N
1457553175.2,286046995.0,N
1457553195.0,286046998.0,N
1457553195.9,286046998.0,N
1457553215.8,286046995.1,N
1457553235.6,286046996.2,N
1457553255.4,286046998.0,N
1457553275.3,286046996.7,N
1457553295.1,286046993.3,Y
1457553296.0,286046993.3,P
1457553315.8,286046997.5,N
1457553335.7,286046999.5,N
1457553355.5,286046998.7,N
1457553375.3,286046999.9,N
1457553395.2,286047002.6,N
1457553415.9,286047001.1,N
1457553435.7,286046998.7,N
1457553455.5,286047001.0,N
1457553475.4,286046999.3,N
1457553495.2,286046997.5,N
1457553515.0,286046999.3,N
1457553515.9,286046999.3,N
1457553535.8,286046998.4,N
1457553555.6,286046998.7,N
1457553575.4,286046997.5,N
1457553595.3,286046997.7,N
